Content
SEND FEEDBACK

Daily
Averages
Monthly
Summary
United States of America

MERIZO, GUAM


Home > North America > United States > Guam
Elevation: 10 feet     Latitude: 13 14N     Longitude: 144 39E

WEATHER
 
SELECT A DAY
Number of Records: 342,579;   Date Range: 1/1/95 - 9/18/14
 
SHARE

PRINT THIS DATA

[ ← Previous Day ]
WEATHER ALMANAC - SEPTEMBER 17, 2013
[ Next Day → ]
[ °C ]   °F
Weather ElementAverageHighLow
Temperature80.9 °F86 °F (10:23 am)75.2 °F (1:14 am)
Dewpoint76 °F78.8 °F (3:31 pm)73.4 °F (1:14 am)
Humidity85.7 %100 % (1:19 am)74 % (9:58 am)
Barometer29.66 in29.74 in (8:03 am)29.51 in (3:58 pm)
Wind Speed13.8 mph21.9 mph (4:17 pm)
Wind Gust29.9 mph (4:14 pm)
Weather ElementAverage
Visibility9.7 mi
Wind DirectionNNW (324.4 °)

Weather ElementTotal
Precipitation0.10 in
Cooling Degree Days15.6 (Base 65)
Growing Degree Days30.6 (Base 50)
Averaged from 86 records on September 17, 2013
WEATHER CONDITIONS BREAKOUT
WIND DIRECTION BREAKOUT
WEATHER BY HOUR - SEPTEMBER 17, 2013
[ °C ]   °F
Local TimeTemperatureDewpointHumidityBarometerVisibilityWind DirectionWind SpeedGust SpeedPrecipitationEventsConditions
1:14 AM75.2 °F73.4 °F94 %29.73 in9.0 miNNW (330°)2.3 mphRainLight Rain
1:19 AM75.2 °F75.2 °F100 %29.72 in4.0 miCalmRainHeavy Rain
1:29 AM77.0 °F75.2 °F94 %29.72 in4.0 miWest (280°)4.6 mphRainRain
1:44 AM77.0 °F73.4 °F89 %29.72 in10.0 miWest (280°)4.6 mphRainLight Rain
1:54 AM75.2 °F73.4 °F94 %29.72 in10.0 miNW (320°)5.8 mphPartly Cloudy
1:58 AM75.6 °F74.1 °F95 %29.60 in10.0 miNW (310°)6.9 mph0.08 inPartly Cloudy
2:58 AM76.1 °F74.8 °F96 %29.60 in10.0 miWSW (250°)12.7 mphPartly Cloudy
3:01 AM77.0 °F75.2 °F94 %29.72 in9.0 miWest (270°)13.8 mphRainLight Rain
3:06 AM77.0 °F75.2 °F94 %29.72 in6.0 miWest (270°)11.5 mphRainRain
3:11 AM75.2 °F75.2 °F100 %29.72 in6.0 miWest (260°)10.4 mphRainLight Rain
3:16 AM75.2 °F75.2 °F100 %29.72 in10.0 miWest (270°)8.1 mphMostly Cloudy
3:21 AM75.2 °F75.2 °F100 %29.72 in10.0 miWest (280°)8.1 mphScattered Clouds
3:58 AM75.7 °F75.2 °F98 %29.59 in10.0 miNW (310°)8.1 mph0.02 inScattered Clouds
4:58 AM75.9 °F74.8 °F96 %29.58 in10.0 miNW (310°)5.8 mphClear
5:58 AM75.9 °F75.4 °F98 %29.59 in10.0 miNW (320°)10.4 mphScattered Clouds
6:03 AM77.0 °F75.2 °F94 %29.71 in10.0 miNW (320°)11.5 mphMostly Cloudy
6:08 AM77.0 °F75.2 °F94 %29.71 in10.0 miNW (320°)10.4 mphMostly Cloudy
6:28 AM77.0 °F75.2 °F94 %29.71 in10.0 miNW (320°)9.2 mphMostly Cloudy
6:33 AM77.0 °F75.2 °F94 %29.71 in10.0 miNNW (330°)9.2 mphMostly Cloudy
6:38 AM77.0 °F75.2 °F94 %29.71 in10.0 miNNW (330°)9.2 mphMostly Cloudy
6:58 AM77.5 °F75.4 °F93 %29.60 in10.0 miNNW (330°)10.4 mphPartly Cloudy
7:28 AM78.8 °F75.2 °F89 %29.73 in10.0 miNNW (330°)8.1 mphMostly Cloudy
7:58 AM80.2 °F76.1 °F87 %29.62 in10.0 miNNW (340°)15.0 mphMostly Cloudy
8:03 AM80.6 °F77.0 °F89 %29.74 in10.0 miNorth (350°)11.5 mphRainLight Rain
8:12 AM80.6 °F77.0 °F89 %29.74 in10.0 miNNW (340°)15.0 mphMostly Cloudy
8:27 AM82.4 °F77.0 °F84 %29.74 in10.0 miNorth (350°)13.8 mphScattered Clouds
8:37 AM82.4 °F77.0 °F84 %29.74 in10.0 miNNW (340°)17.3 mphMostly Cloudy
8:42 AM82.4 °F77.0 °F84 %29.74 in10.0 miNorth (350°)17.3 mphScattered Clouds
8:58 AM82.0 °F76.5 °F83 %29.62 in10.0 miNNW (340°)17.3 mph0.00 inPartly Cloudy
9:18 AM82.4 °F77.0 °F84 %29.74 in10.0 miNNW (340°)13.8 mphMostly Cloudy
9:43 AM84.2 °F77.0 °F79 %29.74 in10.0 miNorth (350°)15.0 mphScattered Clouds
9:58 AM85.5 °F76.5 °F74 %29.62 in10.0 miNNW (340°)13.8 mphPartly Cloudy
10:23 AM86.0 °F77.0 °F74 %29.74 in10.0 miNNW (340°)13.8 mphMostly Cloudy
10:38 AM86.0 °F77.0 °F74 %29.73 in10.0 miNNW (340°)16.1 mphMostly Cloudy
10:58 AM85.1 °F77.4 °F78 %29.61 in10.0 miNNW (340°)15.0 mphMostly Cloudy
11:13 AM86.0 °F77.0 °F74 %29.72 in10.0 miNNW (340°)16.1 mphScattered Clouds
11:58 AM85.6 °F77.0 °F75 %29.59 in10.0 miNorth (350°)17.3 mphScattered Clouds
12:23 PM86.0 °F77.0 °F74 %29.70 in10.0 miNNW (340°)16.1 mphMostly Cloudy
12:28 PM84.2 °F77.0 °F79 %29.69 in10.0 miNNW (340°)17.3 mphMostly Cloudy
12:58 PM85.3 °F76.8 °F76 %29.56 in10.0 miNNW (340°)17.3 mphMostly Cloudy
1:13 PM86.0 °F77.0 °F74 %29.68 in10.0 miNNW (340°)19.6 mph24.2 mphMostly Cloudy
1:18 PM86.0 °F77.0 °F74 %29.67 in10.0 miNNW (340°)16.1 mph24.2 mphMostly Cloudy
1:33 PM86.0 °F77.0 °F74 %29.67 in10.0 miNNW (340°)17.3 mphMostly Cloudy
1:58 PM85.8 °F77.4 °F76 %29.54 in10.0 miNNW (340°)19.6 mphMostly Cloudy
2:18 PM86.0 °F77.0 °F74 %29.65 in10.0 miNNW (340°)17.3 mphMostly Cloudy
2:23 PM84.2 °F77.0 °F79 %29.65 in10.0 miNNW (340°)18.4 mphScattered Clouds
2:28 PM84.2 °F77.0 °F79 %29.65 in10.0 miNNW (340°)18.4 mphMostly Cloudy
2:33 PM84.2 °F77.0 °F79 %29.65 in10.0 miNorth (350°)18.4 mphScattered Clouds
2:48 PM84.2 °F77.0 °F79 %29.64 in10.0 miNorth (360°)12.7 mph26.5 mphMostly Cloudy
2:58 PM82.6 °F75.7 °F80 %29.53 in10.0 miNNW (340°)16.1 mph21.9 mphMostly Cloudy
3:08 PM82.4 °F75.2 °F79 %29.64 in10.0 miNorth (350°)12.7 mph21.9 mphRainLight Rain
3:13 PM82.4 °F77.0 °F84 %29.64 in10.0 miNorth (350°)12.7 mph21.9 mphRainLight Rain
3:19 PM82.4 °F75.2 °F79 %29.64 in10.0 miNorth (350°)15.0 mph20.7 mphScattered Clouds
3:21 PM82.4 °F77.0 °F84 %29.64 in10.0 miNorth (350°)17.3 mph25.3 mphLight Drizzle
3:31 PM82.4 °F78.8 °F89 %29.64 in10.0 miNW (320°)12.7 mph25.3 mphRainLight Rain
3:36 PM82.4 °F78.8 °F89 %29.63 in10.0 miNNW (330°)12.7 mphRainLight Rain
3:41 PM82.4 °F78.8 °F89 %29.64 in10.0 miNW (320°)12.7 mphLight Drizzle
3:51 PM82.4 °F77.0 °F84 %29.63 in10.0 miNW (320°)15.0 mphMostly Cloudy
3:56 PM82.4 °F77.0 °F84 %29.63 in10.0 miNW (320°)13.8 mphMostly Cloudy
3:58 PM81.5 °F77.2 °F87 %29.51 in10.0 miNNW (330°)13.8 mph0.00 inMostly Cloudy
3:59 PM80.6 °F77.0 °F89 %29.63 in10.0 miNNW (330°)12.7 mphRainLight Rain
4:09 PM80.6 °F77.0 °F89 %29.63 in9.0 miNorth (350°)18.4 mph28.8 mphLight Drizzle
4:14 PM80.6 °F77.0 °F89 %29.64 in10.0 miNorth (350°)18.4 mph29.9 mphLight Drizzle
4:17 PM80.6 °F75.2 °F84 %29.64 in10.0 miNNW (340°)21.9 mph29.9 mphMostly Cloudy
4:27 PM80.6 °F77.0 °F89 %29.64 in10.0 miNNW (340°)20.7 mph27.6 mphMostly Cloudy
4:32 PM80.6 °F77.0 °F89 %29.64 in10.0 miNNW (340°)21.9 mph27.6 mphScattered Clouds
4:58 PM81.1 °F75.0 °F82 %29.52 in10.0 miNNW (340°)17.3 mph23.0 mph0.00 inClear
5:33 PM80.6 °F75.2 °F84 %29.65 in10.0 miNorth (350°)18.4 mphMostly Cloudy
5:58 PM81.3 °F75.9 °F84 %29.55 in10.0 miNNW (340°)18.4 mphMostly Cloudy
6:08 PM80.6 °F75.2 °F84 %29.67 in10.0 miNNW (340°)16.1 mphMostly Cloudy
6:13 PM80.6 °F75.2 °F84 %29.67 in10.0 miNorth (350°)16.1 mphOvercast
6:28 PM80.6 °F75.2 °F84 %29.67 in10.0 miNNW (340°)16.1 mphScattered Clouds
6:58 PM81.0 °F75.7 °F84 %29.55 in10.0 miNorth (350°)17.3 mphScattered Clouds
7:03 PM80.6 °F75.2 °F84 %29.67 in10.0 miNNW (340°)18.4 mphMostly Cloudy
7:18 PM80.6 °F77.0 °F89 %29.67 in10.0 miNorth (350°)16.1 mphMostly Cloudy
7:58 PM81.1 °F76.3 °F85 %29.56 in10.0 miNorth (360°)10.4 mph20.7 mphOvercast
8:28 PM80.6 °F75.2 °F84 %29.68 in10.0 miNorth (350°)17.3 mphScattered Clouds
8:58 PM81.0 °F75.0 °F82 %29.57 in10.0 miNorth (350°)16.1 mphPartly Cloudy
9:23 PM80.6 °F75.2 °F84 %29.70 in10.0 miNNW (340°)18.4 mphMostly Cloudy
9:53 PM80.6 °F75.2 °F84 %29.70 in10.0 miNorth (350°)12.7 mphScattered Clouds
9:58 PM80.8 °F75.6 °F84 %29.57 in10.0 miNNW (340°)13.8 mphScattered Clouds
10:18 PM80.6 °F75.2 °F84 %29.69 in10.0 miNorth (350°)13.8 mphMostly Cloudy
10:23 PM80.6 °F75.2 °F84 %29.69 in10.0 miNorth (350°)12.7 mphMostly Cloudy
10:58 PM80.2 °F75.2 °F85 %29.57 in10.0 miVariable6.9 mph21.9 mphMostly Cloudy
11:03 PM80.6 °F75.2 °F84 %29.69 in10.0 miNNW (340°)15.0 mph21.9 mphMostly Cloudy
11:58 PM78.1 °F74.1 °F88 %29.55 in10.0 miNNW (340°)10.4 mphClear
Hourly data recorded from PGUA, located miles away from Merizo, Guam







STORIES FROM OUR PARTNERS